User: anonymous   Login
Location: Bothwell
(42.3833°S, 147.0000°E)
Time: 18:10:01
(UTC+10:00)
Language:

DX 1 - Orbit

View from above orbital plane
View from above orbital plane
View from above satellite
View from above satellite

Ground track
Ground track

The orbit data is extracted from the following two-line orbital elements,

1 40071U 14037C   23266.75707730  .00002278  00000-0  28518-3 0  9998
2 40071  98.3455 162.2272 0006624 268.0657  91.9796 14.83332853497979
Epoch (UTC): 23 September 2023 18:10:11
Eccentricity: 0.0006624
inclination: 98.3455°
perigee height: 614 km
apogee height: 623 km
right ascension of ascending node: 162.2272°
argument of perigee: 268.0657°
revolutions per day: 14.83332853
mean anomaly at epoch: 91.9796°
orbit number at epoch: 49797

The dashed part of the orbit path shows where the satellite is in the earth's shadow,  

DLR